Showing default

UKUBE 1, 40074

Orbit data source: Space-Track

UKUBE 1, 40074 is a payload satellite owned by UKSA (UK) in SSO that was launched on Tue, 08 Jul 2014 UTC via a SOYUZ-2-1B launch vehicle from the Tyuratam Missile And Space Complex (TTMTR). Payload-class satellites include a variety of spacecraft equipped with specific instruments for various scientific and technological missions. These include communications satellites like Starlink; space stations such as the ISS; scientific satellites like the Hubble; Earth observation satellites from companies like Planet Labs, Umbra, and HawkEye 360; GPS; miniature CubeSats for education and research; and military/defense satellites.

Loading next visibility...
Identifier
40074, 2014-037F
Orbit
SSO
Country
Flag of UKUK
Related business
Manufacturer
ClydeSpace
Mission
Operational Commercial Technology
Bus & Motor
CUBESAT 3U, Unknown motor
Mass
4 kg wet, 4 kg dry
Launch date (UTC)
2014-07-08 (11 years ago)
Launch vehicle
SOYUZ-2-1B
Launch site
Tyuratam Missile And Space Complex (TTMTR)
Object type
Payload
Rocket body
Debris
Shape & HBR
Box + 1 Pan, 0.2 m
Radar Cross Section
0.038 m², Medium (>0.1 m² and < 1m²)

Expand to show TLE details & history
Last TLE update: 21 hours ago

TLE from 21 hours ago
0 UKUBE 1
1 40074U 14037F   25290.88287171  .00019130  00000-0  12442-2 0  9999
2 40074  98.4081 264.8944 0000710  90.8479 269.2828 15.08041994611960
Epoch: 2025-10-17T21:11Z
TLE epoch observation values (Epoch: 2025-10-17T21:11:20.115Z)
Latitude
-0.00004°
Longitude
-79.56127°
Altitude
545.234 km
Speed
7.59 km/s
True Right ascension
17h 39m 34s
True Declination
0° 00' 00"
Sunlit
Object was in daylight at epoch
Visualization orbit readout
Latitude
Unknown
Longitude
Unknown
Altitude
Unknown
Speed
Unknown
Apparent Right ascension
Unknown
Apparent Declination
Unknown
Sunlit
N/A
Visualization observer readout
Local Sidereal Time
13:13:35
Azimuth
Unknown
Elevation
Unknown
Doppler factor
Unknown
Orbital elements
Apogee altitude
539.702 km
Perigee altitude
538.72 km
Semi-major axis
6,917.348 km
Eccentricity
0.00007
Inclination
98.4081°
RAAN
264.8944°
Arg. of periapsis
90.8479°
True anomaly
269.27466°
Mean anomaly
269.2828°
Eccentric anomaly
269.27873°
Mean motion
3.77254 °/min
Orbital period
95.43 mins
BSTAR
0.0012442
Loading maneuver chart data...
Computing Atmospheric mass density...
Loading historical data...
Loading historical data...
Loading historical data...
Loading historical data...
Loading historical data...
Loading historical data...
Loading historical data...

Documentation

Showing up to 5 results
|